Location: Kalberh�ni
(46.4610°N, 7.2453°E)
Time: 09:06:21
(UTC+00:00)

Cosmos 1455 - Pass Details

Date: 01 November 2021
Orbit: 496 x 520 km, 82.5° (Epoch: 27 November)

Event Time Altitude Azimuth Distance (km) Brightness Sun altitude
Rises 04:46:35 0° 349° (NNW) 2,596 5.6 -15.2°
Reaches altitude 10° 04:48:43 10° 347° (NNW) 1,707 4.6 -14.9°
Maximum altitude 04:52:26 71° 264° (W) 529 2.0 -14.2°
Drops below altitude 10° 04:56:07 10° 179° (S) 1,693 4.9 -13.6°
Sets 04:58:13 0° 178° (S) 2,573 5.9 -13.2°
